Zurück zum Katalog

CZ-6A DEB

AktivPO
NORAD 55883·DEBRIS·🇨🇳 China

Gestartet Nov 11, 2022 von Taiyuan Satellite Launch Center

Loading…

Nächste Überflüge (nächste 24 Stunden)

TLE

AktuellSource: Space-Track

Epoche: Sep 14, 2026, 11:35 UTC

1 55883U 22151AAF 26257.48281964  .00003087  00000-0  49240-3 0  9994
2 55883  98.6737 353.1292 0114693 319.5715  39.7006 14.68437460191730

Verfolge CZ-6A DEB in Echtzeit mit AllMySat

Download on the App Store